Location: Proctor
(47.8934°N, 114.3048°W)
Time: 02:46:53
(UTC+00:00)

AO-109 - Pass Details

Date: 11 July 2022
Orbit: 469 x 506 km, 60.7° (Epoch: 11 August)

Event Time Altitude Azimuth Distance (km) Brightness Sun altitude
Exits shadow 08:04:25 25° 107° (ESE) 1,008 ? -19.8°
Drops below altitude 10° 08:06:58 10° 66° (ENE) 1,666 ? -19.8°
Sets 08:09:22 0° 54° (NE) 2,558 ? -19.8°
